Location: Tamazert
(32.6352°N, 5.2072°W)
Time: 12:50:04
(UTC+00:00)

Cosmos 2333 Rocket - Visible Passes

Search period start: 26 September 2022 00:00
Search period end: 06 October 2022 00:00
Orbit: 838 x 864 km, 70.8° (Epoch: 25 September)

Date Brightness Start Highest point End Pass type
(mag) Time Alt. Az. Time Alt. Az. Time Alt. Az.
03 Oct 4.1 19:32:44 10° SSE 19:33:33 14° SSE 19:33:33 14° SSE visible
04 Oct 3.1 19:20:28 10° SSE 19:24:21 28° ESE 19:24:21 28° ESE visible
04 Oct 4.3 21:04:23 10° SW 21:06:34 21° WSW 21:06:34 21° WSW visible
05 Oct 3.0 19:08:12 10° SSE 19:13:05 29° ESE 19:15:49 20° ENE visible
05 Oct 3.8 20:52:07 10° SW 20:57:12 32° WNW 20:58:07 30° NW visible
